| time (UTC) | temp F | wind direction | speed knots | gust knots | rain 1hr in | rain 24hr in | rain mn in | humidity % | barometer mb |
| 20260503033058 | 55 | 57 | 0.0 | 1.7 | 0.00 | 0.00 | 0.00 | 49 | 1010.3 |
| 20260503031552 | 57 | 57 | 0.9 | 2.6 | 0.00 | 0.00 | 0.00 | 42 | 1010.1 |
| 20260503030052 | 59 | 55 | 1.7 | 3.5 | 0.00 | 0.00 | 0.00 | 38 | 1010.1 |
| 20260503024547 | 61 | 227 | 0.0 | 0.9 | 0.00 | 0.00 | 0.00 | 34 | 1010.0 |
| 20260503023046 | 62 | 0 | 0.0 | 0.0 | 0.00 | 0.00 | 0.00 | 36 | 1010.0 |
| 20260503021544 | 64 | 0 | 0.0 | 1.7 | 0.00 | 0.00 | 0.00 | 32 | 1010.0 |
| 20260503020047 | 66 | 228 | 0.0 | 3.5 | 0.00 | 0.00 | 0.00 | 32 | 1010.1 |
| 20260503014543 | 68 | 230 | 1.7 | 6.1 | 0.00 | 0.00 | 0.00 | 29 | 1010.1 |
| 20260503013040 | 67 | 233 | 2.6 | 7.8 | 0.00 | 0.00 | 0.00 | 31 | 1010.4 |
| 20260503011544 | 67 | 234 | 3.5 | 9.6 | 0.00 | 0.00 | 0.00 | 29 | 1010.6 |
| 20260503010044 | 67 | 273 | 4.3 | 7.8 | 0.00 | 0.00 | 0.00 | 29 | 1010.8 |
| 20260503004608 | 69 | 267 | 5.2 | 10.4 | 0.00 | 0.00 | 0.00 | 27 | 1011.1 |
| 20260503003041 | 69 | 284 | 4.3 | 7.8 | 0.00 | 0.00 | 0.00 | 26 | 1011.5 |
| 20260503001550 | 69 | 259 | 7.0 | 13.9 | 0.00 | 0.00 | 0.00 | 27 | 1011.7 |
| 20260503000055 | 69 | 236 | 7.0 | 13.9 | 0.00 | 0.00 | 0.00 | 27 | 1011.8 |
| 20260502234542 | 69 | 248 | 7.0 | 18.2 | 0.00 | 0.00 | 0.00 | 27 | 1011.9 |
| 20260502233059 | 69 | 216 | 6.1 | 11.3 | 0.00 | 0.00 | 0.00 | 27 | 1012.1 |
| 20260502231558 | 69 | 220 | 7.0 | 13.9 | 0.00 | 0.00 | 0.00 | 27 | 1012.4 |
| 20260502230045 | 69 | 249 | 7.0 | 12.2 | 0.00 | 0.00 | 0.00 | 26 | 1012.6 |
| 20260502224544 | 69 | 302 | 7.8 | 13.9 | 0.00 | 0.00 | 0.00 | 26 | 1013.0 |
| 20260502223046 | 68 | 247 | 2.6 | 9.6 | 0.00 | 0.00 | 0.00 | 27 | 1013.2 |
| 20260502221559 | 69 | 192 | 5.2 | 11.3 | 0.00 | 0.00 | 0.00 | 29 | 1013.2 |
| 20260502220049 | 68 | 254 | 5.2 | 10.4 | 0.00 | 0.00 | 0.00 | 28 | 1013.7 |
| 20260502214542 | 68 | 222 | 4.3 | 10.4 | 0.00 | 0.00 | 0.00 | 28 | 1013.9 |
| 20260502213050 | 67 | 271 | 3.5 | 13.0 | 0.00 | 0.00 | 0.00 | 28 | 1014.3 |
| 20260502211548 | 66 | 331 | 1.7 | 11.3 | 0.00 | 0.00 | 0.00 | 30 | 1014.5 |
| 20260502210044 | 66 | 224 | 5.2 | 14.8 | 0.00 | 0.00 | 0.00 | 29 | 1014.8 |
| 20260502204551 | 66 | 204 | 6.1 | 10.4 | 0.00 | 0.00 | 0.00 | 30 | 1015.0 |
| 20260502203055 | 65 | 225 | 5.2 | 11.3 | 0.00 | 0.00 | 0.00 | 29 | 1015.1 |
| 20260502201549 | 65 | 337 | 5.2 | 9.6 | 0.00 | 0.00 | 0.00 | 31 | 1015.4 |
| 20260502200043 | 65 | 238 | 4.3 | 15.6 | 0.00 | 0.00 | 0.00 | 31 | 1015.7 |
| 20260502194545 | 65 | 240 | 6.1 | 12.2 | 0.00 | 0.00 | 0.00 | 30 | 1015.7 |
| 20260502193042 | 64 | 254 | 7.0 | 13.0 | 0.00 | 0.00 | 0.00 | 31 | 1015.8 |
| 20260502191548 | 64 | 279 | 2.6 | 13.0 | 0.00 | 0.00 | 0.00 | 33 | 1016.2 |
| 20260502190051 | 63 | 282 | 3.5 | 17.4 | 0.00 | 0.00 | 0.00 | 34 | 1016.5 |
| 20260502184543 | 63 | 246 | 1.7 | 7.8 | 0.00 | 0.00 | 0.00 | 33 | 1016.8 |
| 20260502183043 | 63 | 257 | 6.1 | 12.2 | 0.00 | 0.00 | 0.00 | 34 | 1017.0 |
| 20260502181549 | 62 | 246 | 5.2 | 10.4 | 0.00 | 0.00 | 0.00 | 34 | 1017.1 |
| 20260502163042 | 59 | 65 | 1.7 | 6.1 | 0.00 | 0.00 | 0.00 | 38 | 1018.4 |
| 20260502161553 | 58 | 239 | 1.7 | 7.0 | 0.00 | 0.00 | 0.00 | 40 | 1018.5 |
| 20260502151547 | 54 | 292 | 0.9 | 5.2 | 0.00 | 0.00 | 0.00 | 51 | 1018.7 |
| 20260502123041 | 34 | 248 | 0.9 | 1.7 | 0.00 | 0.00 | 0.00 | 85 | 1018.6 |
| 20260502121546 | 33 | 0 | 0.0 | 2.6 | 0.00 | 0.00 | 0.00 | 85 | 1018.5 |
| 20260502114555 | 34 | 0 | 0.0 | 0.0 | 0.00 | 0.00 | 0.00 | 80 | 1018.4 |
| 20260502113045 | 36 | 0 | 0.0 | 0.9 | 0.00 | 0.00 | 0.00 | 81 | 1018.4 |
| 20260502111541 | 36 | 26 | 0.0 | 1.7 | 0.00 | 0.00 | 0.00 | 82 | 1018.3 |
| 20260502110042 | 37 | 0 | 0.0 | 0.9 | 0.00 | 0.00 | 0.00 | 82 | 1018.4 |
| 20260502104548 | 37 | 0 | 0.0 | 0.9 | 0.00 | 0.00 | 0.00 | 81 | 1018.4 |
| 20260502103041 | 37 | 0 | 0.0 | 0.9 | 0.00 | 0.00 | 0.00 | 80 | 1018.2 |
| 20260502101550 | 37 | 0 | 0.0 | 1.7 | 0.00 | 0.00 | 0.00 | 83 | 1018.3 |
| 20260502100104 | 36 | 0 | 0.0 | 2.6 | 0.00 | 0.00 | 0.00 | 85 | 1018.2 |
| 20260502070046 | 41 | 0 | 0.0 | 0.9 | 0.00 | 0.00 | 0.00 | 75 | 1017.5 |
| 20260502064548 | 41 | 0 | 0.0 | 0.9 | 0.00 | 0.00 | 0.00 | 73 | 1017.5 |
| 20260502063042 | 43 | 0 | 0.0 | 1.7 | 0.00 | 0.00 | 0.00 | 72 | 1017.5 |
| 20260502061540 | 45 | 0 | 0.0 | 0.9 | 0.00 | 0.00 | 0.00 | 69 | 1017.4 |
| 20260502060041 | 46 | 0 | 0.0 | 1.7 | 0.00 | 0.00 | 0.00 | 68 | 1017.1 |
| 20260502054547 | 47 | 0 | 0.0 | 1.7 | 0.00 | 0.00 | 0.00 | 69 | 1016.8 |
| 20260502053044 | 46 | 337 | 0.0 | 1.7 | 0.00 | 0.00 | 0.00 | 72 | 1016.7 |
| 20260502051600 | 44 | 314 | 0.0 | 1.7 | 0.00 | 0.00 | 0.00 | 74 | 1016.6 |
| 20260502050044 | 45 | 317 | 0.9 | 1.7 | 0.00 | 0.00 | 0.00 | 71 | 1016.5 |
| 20260502044541 | 46 | 317 | 0.0 | 1.7 | 0.00 | 0.00 | 0.00 | 71 | 1016.5 |
| 20260502043045 | 47 | 317 | 0.0 | 0.9 | 0.00 | 0.00 | 0.00 | 69 | 1016.4 |
| 20260502041547 | 48 | 317 | 0.0 | 0.9 | 0.00 | 0.00 | 0.00 | 68 | 1016.3 |
| 20260502040045 | 49 | 317 | 0.0 | 1.7 | 0.00 | 0.00 | 0.00 | 67 | 1016.2 |
| 20260502034546 | 50 | 0 | 0.0 | 0.9 | 0.00 | 0.00 | 0.00 | 66 | 1016.0 |